Tracking 19831 objects as of 23-Aug-2019
HD Live streaming from Space Station
objects crossing your sky now

FENGYUN 1C DEB

Track FENGYUN 1C DEB now!
10-day predictions


NORAD ID: 33603
Int'l Code: 1999-025DCL
Perigee: 490.1 km
Apogee: 839.8 km
Inclination: 98.8 °
Period: 97.9 minutes
Semi major axis: 7035 km
RCS: 0.0056 m2 (small)
Launch date: May 10, 1999
Source: People's Republic of China (PRC)
Launch site: Taiyaun Space Center, China (TSC)

Note: This is SATELLITE DEBRIS
aabbcc
Your satellite tracking list
Your tracking list is empty




NASA's NSSDC Master Catalog

Two Line Element Set (TLE):
1 33603U 99025DCL 19234.39785718 +.00000030 +00000-0 +10958-4 0  9997
2 33603 098.8245 294.3791 0248545 094.3450 268.6195 14.71025276649237
Source of the keplerian elements: AFSPC